Regional Weather Roundup
Issued by NWS Cleveland, OH

Home | Current Version | Previous Version | Graphics & Text | Print | Product List | Glossary On
Versions: 1 2 3 4 5 6 7 8 9 10 11 12 13 14 15 16 17 18 19 20 21 22 23 24 25 26 27 28 29 30 31 32 33 34 35 36 37 38 39 40 41 42 43 44 45 46 47 48 49 50
000
ASUS41 KCLE 202312
RWRCLE
OHIO REGIONAL WEATHER ROUNDUP
NATIONAL WEATHER SERVICE WILMINGTON, OH
700 PM EDT THU JUL 20 2017

NOTE: "FAIR" INDICATES FEW OR NO CLOUDS BELOW 12,000 FEET WITH NO
SIGNIFICANT WEATHER AND/OR OBSTRUCTIONS TO VISIBILITY.

OHZ001>008-015>018-024>027-034-035-043-044-210000-
   NORTHWEST OHIO

CITY           SKY/WX    TMP DP  RH WIND       PRES   REMARKS
DEFIANCE       PTSUNNY  N/A N/A N/A SW7       29.97F
FINDLAY        FAIR      84  70  62 SW10      29.97F
TOLEDO EXPRESS PTSUNNY   84  72  67 W8        29.95F
TOLEDO EXEC    FAIR      85  71  63 W8        29.95F HX  90
LIMA           CLOUDY    82  73  74 SW5       30.00S
$$

OHZ009>014-019>023-028>033-038-089-210000-
   NORTHEAST OHIO

CITY           SKY/WX    TMP DP  RH WIND       PRES   REMARKS
CLE-HOPKINS    PTSUNNY   87  66  49 NW7       29.98S
CLE-LAKEFRONT  PTSUNNY   80  71  74 SW6       29.95S
CUY CO. ARPT   MOSUNNY   82  64  54 NW9       29.97F
LORAIN-ELYRIA  FAIR      82  65  56 N3        29.97F
ASHTABULA      CLOUDY    81  68  64 W7        29.97S
AKRON-CANTON   PTSUNNY   84  66  54 NW8       29.99S
WOOSTER        PTSUNNY   83  72  69 W5        29.99S
MANSFIELD      FAIR      83  71  67 W8        30.00S
YOUNGSTOWN     PTSUNNY   83  66  56 NW8       29.98S
$$

OHZ042-051>053-060>062-070>072-077>081-210000-
  SOUTHWEST OHIO

CITY           SKY/WX    TMP DP  RH WIND       PRES   REMARKS
CINC-COVINGTON PTSUNNY   88  75  65 W9        30.01F HX  97
CINC-LUNKEN    FAIR      89  76  65 W8        29.98F HX 100
HAMILTON       FAIR      89  77  67 W7        29.99F HX 101
DAYTON         PTSUNNY   83  74  74 W9        30.02S
WRIGHT-PAT AFB MOSUNNY   86  76  71 SW6       30.00F HX  95
DAYTON GENERAL FAIR      86  75  69 SW7       30.00F HX  95
WILMINGTON     FAIR      85  79  82 W7        30.01F HX  98
$$

OHZ036-037-039>041-045>050-054>059-063>069-073>076-082>088-210000-
  CENTRAL AND SOUTHEAST OHIO

CITY           SKY/WX    TMP DP  RH WIND       PRES   REMARKS
COLUMBUS       PTSUNNY   85  73  67 W13       29.99S HX  91
OSU AIRPORT    FAIR      83  75  77 W12       30.00S HX  90
BOLTON FIELD   SUNNY     82  73  74 W7        30.01S
RICKENBACK AFB FAIR      83  75  79 SW7       29.99F HX  90
NEWARK         FAIR      84  73  69 SW9       29.99F HX  90
MARION         FAIR      84  69  60 W6        29.99F
LANCASTER      FAIR      81  73  76 W9        30.01F
ZANESVILLE     LGT RAIN  82  74  76 SW6       29.99S
NEW PHILLY     CLOUDY    79  76  90 SE3       30.00R
$$




USA.gov is the U.S. government's official web portal to all federal, state and local government web resources and services.